Wind_Speed
43 40 42 43 42 41 39 39 40 41 38 38 38 38 37 36 36 37 36 32 33 33 33 34 34 36 36 37 37 40 41 43 44 48 47 50 54 56 56 58 62 68 66
48 47 47 48 49 48 48 48 45 44 42 44 42 42 44 42 42 40 41 42 40 41 40 38 39 41 39 39 42 44 45 47 48 49 51 54 55 54 56 61 65 67 66
53 53 52 52 53 53 52 52 50 49 48 46 48 46 45 46 47 45 45 45 46 45 43 42 42 42 45 44 46 50 51 50 50 52 53 55 53 55 62 64 67 69 65
57 57 56 56 57 57 58 56 57 55 54 51 52 52 51 48 48 50 49 49 48 47 46 45 45 45 47 48 48 50 52 56 56 56 57 51 53 60 66 68 68 66 68
61 62 62 62 62 62 60 61 59 60 58 58 56 55 55 53 50 51 52 52 50 49 47 47 47 48 49 51 51 52 53 57 58 60 50 54 59 66 69 68 69 64 66
66 67 68 67 66 65 66 66 65 64 63 61 60 59 59 57 56 54 55 54 52 51 51 51 51 51 52 53 54 55 56 58 57 53 55 59 66 68 68 66 63 63 63
68 69 69 70 69 69 70 71 70 68 68 66 64 63 62 62 60 59 58 57 56 56 56 56 56 55 56 56 56 58 58 57 54 59 63 68 67 65 65 65 64 65 65
69 70 73 73 73 72 74 75 74 73 72 71 69 67 68 67 65 64 61 61 61 61 59 60 60 60 61 60 62 64 65 59 58 63 65 65 65 67 67 64 64 66 62
74 74 75 77 75 76 77 78 78 76 75 74 75 71 72 70 68 67 67 65 65 65 65 65 63 63 64 63 63 65 58 60 62 61 60 65 69 70 65 63 63 64 52
75 75 76 77 77 79 79 81 81 80 78 79 69 68 73 75 73 71 70 69 68 68 68 68 67 70 66 65 66 65 64 62 62 66 68 70 70 65 64 62 63 58 47
77 78 78 77 77 77 78 81 85 84 83 79 73 69 65 73 79 76 75 75 73 71 70 69 70 69 65 66 64 66 65 66 68 66 69 68 67 64 65 60 57 52 46
75 74 76 74 74 72 73 76 80 85 86 83 84 82 70 65 66 70 81 78 77 72 73 69 64 64 64 66 67 68 70 70 68 66 66 66 66 65 60 58 54 49 46
68 69 70 70 71 69 68 68 70 72 76 83 85 85 85 80 68 66 64 65 69 71 68 68 66 66 69 74 76 76 74 70 69 68 69 66 64 62 60 57 52 46 45
65 67 69 69 70 69 69 68 66 68 69 71 76 78 81 83 83 76 74 73 70 70 72 72 73 75 77 80 79 79 79 76 72 70 67 64 62 60 59 56 51 47 47
66 66 66 66 68 68 70 70 68 67 67 68 70 74 77 78 81 86 84 83 81 81 82 83 83 82 83 83 81 76 73 73 72 65 65 61 62 61 60 55 52 48 45
64 63 64 65 65 65 66 69 69 69 67 65 65 67 68 72 75 79 82 82 82 83 83 82 82 82 79 78 78 77 73 69 67 65 62 63 65 63 61 54 51 48 46
62 62 61 61 62 64 63 64 66 68 68 67 63 64 64 64 67 71 76 78 78 80 81 79 79 77 75 77 79 73 70 67 65 61 65 68 68 62 58 53 52 51 50
60 62 62 62 61 60 61 62 63 66 68 68 67 66 63 60 60 63 65 66 68 72 76 78 74 69 66 65 66 67 65 63 64 65 66 67 63 62 54 53 55 53 54
61 62 62 62 62 60 60 58 61 62 65 68 69 69 67 63 61 60 59 57 57 57 55 53 53 53 54 57 59 60 60 62 64 64 64 60 62 56 55 57 57 57 57
59 58 60 62 63 61 59 57 57 59 61 66 70 70 70 67 65 63 60 58 58 57 56 56 54 54 54 58 58 58 60 61 62 62 61 61 57 56 58 59 60 61 62
57 57 57 59 63 60 58 58 57 57 59 60 65 69 72 71 69 67 63 61 60 58 56 55 53 54 54 53 53 56 56 57 59 59 58 57 57 58 59 62 62 64 66
56 55 55 57 59 62 58 58 56 57 57 58 60 67 70 71 70 67 64 63 61 60 58 55 55 55 54 53 53 54 55 56 60 58 57 56 58 61 62 65 66 68 71
60 58 55 55 56 58 57 60 59 57 57 57 62 63 67 69 69 70 68 64 62 61 59 58 56 56 56 55 56 58 58 56 54 54 55 56 59 62 65 69 71 74 75
65 65 59 56 55 55 53 57 59 59 59 58 60 64 65 67 67 68 67 65 63 62 61 59 58 57 57 57 59 58 56 53 52 56 58 60 63 67 68 71 75 78 81
68 65 65 60 56 57 54 55 55 57 56 58 61 64 67 67 67 65 66 65 63 62 61 61 60 60 59 59 59 59 59 57 57 58 62 65 67 71 73 76 82 86 90
68 67 69 65 62 60 58 56 55 55 55 52 58 65 66 67 67 69 66 65 65 65 63 63 61 61 61 62 61 62 62 62 62 63 65 70 72 78 80 83 87 91 94
Wind_Direction
264 263 266 267 269 270 271 269 266 267 266 268 266 267 265 264 265 268 268 269 273 277 279 279 282 284 286 286 285 286 288 289 290 293 290 292 297 298 302 299 302 307 306
263 264 266 269 270 271 273 273 274 273 270 268 266 268 268 268 268 267 267 267 272 275 278 279 279 279 279 283 284 287 289 288 289 292 293 293 298 299 303 301 305 305 303
259 263 264 266 267 271 271 271 272 272 271 272 270 266 265 266 266 265 264 266 271 275 277 278 279 280 279 280 282 285 288 289 290 292 294 294 296 300 305 305 306 308 304
258 260 261 263 266 268 269 268 270 270 270 270 270 269 267 265 266 267 267 269 272 274 276 277 279 279 278 279 281 284 285 287 291 293 292 295 297 305 307 306 307 306 305
259 258 259 262 263 265 264 267 266 268 268 269 267 268 267 267 265 266 268 269 273 274 274 275 278 280 281 281 282 282 284 289 288 291 288 296 300 304 306 308 307 304 305
256 258 261 258 259 260 260 262 264 264 265 266 265 265 266 265 267 267 268 270 272 273 274 276 278 279 280 282 283 284 287 292 292 288 291 298 302 303 308 310 307 308 307
253 254 256 257 257 257 256 258 258 258 260 263 263 264 264 264 264 265 267 268 271 272 273 275 278 279 280 281 283 285 289 285 286 290 295 297 301 303 306 309 307 306 308
253 252 253 254 255 256 254 255 256 257 258 258 260 262 262 262 263 264 265 269 270 272 273 275 276 279 281 280 283 287 291 282 289 293 294 297 299 303 305 307 309 308 307
254 252 251 251 253 253 254 254 254 256 260 262 258 258 262 261 262 264 266 266 268 271 272 273 276 277 278 279 286 287 286 286 291 294 295 297 300 303 303 305 306 308 301
257 255 252 251 251 252 253 254 255 255 257 257 261 263 260 260 261 261 263 265 268 269 271 273 276 278 283 285 286 283 286 287 290 292 294 297 299 300 301 303 305 305 293
256 256 256 254 253 252 251 253 252 252 255 255 256 256 259 261 259 261 262 264 265 267 270 272 275 281 280 279 282 282 282 284 289 292 293 297 297 299 301 302 303 301 292
257 257 257 256 255 253 253 253 254 252 253 255 255 255 257 262 261 270 264 263 264 266 270 276 276 277 276 279 282 283 285 288 290 291 292 294 297 296 300 301 299 299 289
261 259 258 259 257 255 255 254 255 256 256 254 254 255 257 259 263 260 262 265 270 270 270 275 277 275 275 281 284 286 287 288 287 291 291 292 293 295 300 297 297 291 286
261 260 259 258 258 257 256 254 254 256 258 257 258 259 257 257 257 259 262 265 267 268 270 273 275 276 279 281 283 283 284 287 286 286 288 289 290 294 298 295 292 286 283
259 261 261 261 259 257 256 254 254 255 257 259 260 260 260 260 258 259 263 267 269 270 272 274 277 278 278 280 282 283 283 285 285 285 286 286 287 291 295 290 286 282 280
259 261 262 262 260 259 256 254 254 255 256 258 259 261 260 261 261 262 266 268 269 272 273 274 276 279 279 279 281 281 284 283 284 282 283 284 285 287 291 284 280 276 276
261 260 260 261 261 260 258 255 253 254 255 256 258 259 261 263 264 265 268 268 269 270 272 275 276 276 276 276 280 281 280 279 280 281 280 281 283 284 285 280 274 273 275
262 262 261 261 261 261 260 258 254 253 253 255 257 259 261 263 264 266 268 270 271 271 272 275 275 276 276 277 277 277 279 278 278 279 279 280 281 285 280 274 273 273 276
262 263 264 263 262 262 263 260 257 255 253 254 255 257 260 262 264 266 267 270 271 272 272 274 277 278 279 280 279 279 280 281 279 279 281 281 283 280 275 271 272 275 277
264 262 263 264 263 262 263 263 262 258 255 255 254 255 257 259 262 263 266 269 271 273 274 276 278 279 278 277 277 279 280 281 281 281 281 281 281 277 271 271 274 275 278
267 263 262 262 264 262 262 263 263 259 257 255 256 255 255 257 258 261 264 267 269 273 276 276 277 281 280 280 281 281 281 281 281 282 282 282 278 275 272 273 274 277 279
272 269 264 263 264 263 261 260 262 262 257 255 256 255 256 257 257 259 261 263 268 271 274 277 279 280 281 282 281 281 282 284 283 284 282 280 278 275 275 277 279 281 282
272 271 270 265 265 265 266 265 262 261 261 258 255 257 256 255 255 256 258 262 265 269 272 275 278 280 281 283 283 282 284 284 283 282 281 280 279 279 279 281 281 282 283
264 268 270 271 269 267 267 267 264 264 262 259 258 255 254 253 253 254 256 259 262 266 269 273 276 279 282 284 282 283 284 283 282 283 282 281 281 281 282 283 284 283 282
258 263 268 272 274 272 268 268 267 264 262 262 258 257 256 254 252 252 254 257 260 263 267 271 274 277 280 281 280 281 282 281 280 280 283 284 284 286 288 289 290 291 290
256 258 262 266 269 274 269 270 270 268 267 268 260 254 254 253 252 251 253 256 259 262 265 269 273 275 278 279 279 279 280 280 281 282 282 284 287 289 289 290 290 291 292
Height
10875 10878 10879 10881 10882 10884 10886 10888 10889 10890 10892 10892 10893 10895 10895 10895 10896 10896 10896 10896 10896 10895 10895 10894 10893 10892 10891 10890 10889 10887 10885 10884 10883 10881 10879 10877 10875 10872 10869 10866 10863 10858 10854
10869 10871 10873 10874 10875 10877 10879 10880 10882 10884 10884 10885 10887 10887 10888 10889 10889 10890 10890 10890 10889 10889 10889 10888 10887 10886 10885 10883 10882 10880 10878 10877 10875 10873 10871 10869 10867 10863 10860 10857 10852 10848 10843
10861 10863 10865 10867 10867 10869 10871 10872 10874 10875 10877 10878 10878 10880 10881 10882 10883 10883 10883 10883 10883 10882 10882 10882 10881 10880 10878 10876 10874 10873 10871 10869 10867 10865 10863 10861 10858 10855 10851 10846 10842 10836 10830
10852 10854 10856 10858 10860 10861 10862 10864 10865 10866 10868 10870 10870 10871 10872 10873 10874 10875 10874 10875 10875 10875 10874 10874 10873 10872 10870 10868 10867 10865 10863 10861 10859 10857 10854 10852 10849 10846 10840 10835 10830 10824 10818
10843 10845 10846 10849 10850 10852 10854 10855 10856 10856 10859 10860 10862 10862 10863 10864 10866 10866 10866 10866 10866 10866 10866 10865 10864 10863 10862 10860 10859 10856 10854 10852 10849 10847 10845 10842 10840 10836 10831 10825 10819 10812 10807
10832 10835 10837 10838 10841 10842 10843 10845 10846 10847 10848 10850 10852 10854 10854 10855 10856 10857 10857 10857 10857 10856 10857 10856 10855 10854 10853 10852 10850 10848 10846 10843 10840 10837 10836 10833 10829 10825 10819 10813 10807 10802 10796
10821 10824 10826 10827 10829 10831 10832 10834 10836 10838 10839 10840 10842 10844 10845 10846 10847 10847 10848 10848 10848 10847 10847 10846 10845 10845 10843 10841 10840 10838 10836 10833 10830 10828 10826 10823 10819 10815 10809 10804 10797 10792 10786
10809 10812 10813 10816 10817 10819 10821 10823 10825 10827 10829 10831 10833 10835 10835 10836 10837 10838 10839 10839 10838 10838 10838 10837 10836 10835 10833 10832 10830 10827 10825 10822 10819 10817 10815 10812 10809 10804 10799 10793 10787 10782 10776
10795 10798 10800 10803 10806 10808 10810 10810 10814 10816 10818 10820 10822 10823 10824 10826 10827 10828 10828 10828 10828 10828 10828 10827 10826 10824 10822 10821 10819 10817 10814 10812 10809 10806 10804 10802 10798 10793 10788 10782 10778 10773 10767
10780 10783 10785 10789 10793 10796 10798 10798 10802 10804 10806 10808 10810 10812 10813 10815 10816 10816 10816 10816 10816 10816 10816 10815 10815 10813 10812 10810 10808 10805 10803 10801 10798 10796 10794 10792 10787 10784 10779 10772 10768 10763 10758
10763 10766 10770 10774 10778 10781 10783 10783 10787 10790 10793 10794 10797 10799 10801 10802 10803 10804 10803 10804 10804 10804 10804 10804 10804 10803 10801 10799 10796 10794 10792 10790 10788 10786 10782 10779 10776 10773 10768 10763 10759 10752 10749
10750 10751 10754 10759 10762 10766 10769 10770 10772 10776 10778 10780 10784 10787 10787 10789 10790 10791 10791 10791 10791 10791 10792 10793 10793 10792 10789 10786 10784 10782 10781 10779 10777 10775 10772 10768 10766 10762 10757 10754 10748 10744 10742
10739 10739 10742 10745 10750 10753 10756 10756 10760 10761 10763 10766 10768 10771 10773 10777 10779 10778 10779 10779 10780 10780 10780 10780 10780 10779 10776 10772 10770 10769 10769 10767 10765 10764 10760 10757 10755 10751 10746 10744 10739 10736 10734
10726 10727 10730 10734 10738 10742 10744 10746 10748 10749 10751 10753 10754 10757 10760 10763 10766 10766 10765 10766 10768 10768 10767 10767 10767 10766 10763 10760 10759 10757 10756 10754 10753 10752 10746 10745 10742 10739 10735 10732 10730 10727 10724
10711 10714 10717 10722 10723 10728 10731 10734 10738 10738 10739 10741 10743 10745 10747 10750 10750 10751 10751 10752 10754 10755 10754 10754 10753 10752 10750 10747 10746 10744 10742 10741 10740 10739 10734 10733 10729 10727 10725 10721 10718 10716 10714
10699 10702 10706 10706 10709 10713 10716 10720 10725 10727 10728 10730 10731 10732 10734 10737 10738 10738 10738 10739 10740 10741 10741 10740 10739 10738 10735 10733 10732 10730 10729 10727 10727 10725 10723 10720 10717 10715 10713 10711 10707 10706 10704
10687 10690 10693 10694 10696 10698 10702 10706 10710 10712 10716 10718 10721 10720 10723 10724 10725 10725 10726 10726 10727 10727 10727 10726 10725 10723 10720 10718 10717 10715 10715 10715 10713 10711 10710 10706 10704 10702 10700 10698 10696 10694 10692
10675 10677 10681 10682 10684 10686 10689 10694 10696 10698 10702 10704 10707 10706 10710 10712 10713 10714 10713 10713 10714 10713 10713 10713 10710 10707 10705 10703 10703 10702 10701 10701 10700 10697 10695 10693 10690 10688 10687 10685 10683 10681 10680
10664 10666 10668 10670 10672 10675 10677 10682 10682 10686 10689 10690 10692 10694 10696 10699 10701 10702 10702 10702 10701 10700 10699 10698 10697 10695 10694 10692 10690 10689 10688 10686 10685 10683 10681 10678 10677 10675 10674 10670 10670 10668 10667
10653 10655 10656 10657 10659 10663 10667 10670 10670 10673 10675 10677 10678 10680 10682 10684 10687 10688 10689 10689 10688 10688 10687 10686 10685 10684 10683 10681 10679 10677 10675 10673 10670 10668 10667 10665 10663 10662 10660 10658 10656 10655 10651
10639 10642 10645 10646 10645 10651 10656 10657 10658 10659 10661 10663 10665 10665 10667 10670 10672 10674 10676 10676 10675 10675 10674 10674 10673 10672 10670 10668 10667 10664 10662 10659 10656 10655 10652 10651 10649 10648 10646 10644 10642 10640 10637
10628 10631 10634 10635 10634 10637 10644 10644 10647 10646 10648 10649 10652 10650 10652 10656 10658 10660 10661 10661 10662 10663 10663 10662 10661 10659 10658 10656 10654 10652 10649 10647 10643 10641 10639 10637 10636 10634 10632 10629 10627 10624 10621
10616 10618 10621 10622 10623 10624 10630 10631 10633 10635 10635 10637 10637 10638 10639 10641 10644 10646 10647 10649 10650 10650 10650 10650 10649 10647 10645 10643 10641 10639 10637 10634 10631 10627 10625 10624 10622 10620 10617 10613 10609 10606 10603
10606 10605 10609 10610 10612 10614 10617 10616 10618 10622 10623 10624 10624 10623 10624 10627 10630 10632 10634 10635 10637 10637 10638 10637 10637 10635 10633 10630 10626 10625 10623 10620 10618 10614 10610 10609 10607 10602 10600 10595 10588 10584 10580
10593 10597 10596 10599 10600 10602 10604 10603 10605 10607 10610 10611 10612 10612 10612 10613 10615 10619 10620 10622 10623 10624 10625 10624 10623 10623 10621 10617 10614 10611 10607 10605 10605 10603 10597 10591 10589 10583 10580 10574 10565 10558 10551
10579 10585 10585 10587 10586 10591 10591 10592 10593 10594 10595 10598 10596 10598 10599 10600 10601 10604 10607 10609 10610 10611 10611 10611 10610 10609 10606 10603 10601 10597 10594 10591 10589 10587 10584 10576 10571 10561 10559 10553 10543 10536 10528